DL4ABR-6 Weather Reports


time (UTC)temp
C
wind
direction
speed
KPH
gust
KPH
rain 1hr
cm
rain 24hr
cm
rain mn
cm
humidity
%
barometer
mb
20260506134955 10 130 0.0 0.0 0.00 0.00 2.18 99 1003.0
20260506133504 10 139 0.0 0.0 0.00 0.00 2.16 99 1003.2
20260506132210 10 156 0.0 0.0 0.00 0.00 2.16 99 1003.3
20260506130950 10 151 0.0 0.0 0.00 0.00 2.16 99 1003.1
20260506125744 10 124 1.6 3.2 0.00 0.00 2.13 99 1003.0
20260506124535 10 157 1.6 1.6 0.00 0.00 2.13 99 1003.1
20260506123320 10 105 1.6 1.6 0.00 0.00 2.11 99 1002.9
20260506122115 10 149 3.2 3.2 0.00 0.00 2.11 99 1003.0
20260506120620 10 167 0.0 1.6 0.00 0.00 2.11 99 1003.0
20260506115242 10 151 0.0 0.0 0.00 0.00 2.08 99 1002.9
20260506113950 9 124 0.0 1.6 0.00 0.00 2.06 99 1003.1
20260506112720 9 167 0.0 0.0 0.00 0.00 2.06 99 1002.9
20260506111230 9 126 0.0 0.0 0.00 0.00 2.06 99 1002.9
20260506110030 10 156 0.0 0.0 0.00 0.00 2.06 99 1002.8
20260506104754 9 157 0.0 0.0 0.00 0.00 2.06 99 1002.8
20260506103305 9 151 0.0 0.0 0.00 0.00 2.06 99 1002.9
20260506102050 9 155 0.0 0.0 0.00 0.00 2.06 99 1002.7
20260506100750 8 121 0.0 1.6 0.00 0.00 2.06 99 1002.9
20260506095306 8 152 0.0 0.0 0.00 0.00 2.03 99 1002.8
20260506094050 8 213 1.6 1.6 0.00 0.00 2.03 99 1002.6
20260506092800 8 137 0.0 0.0 0.00 0.00 2.01 99 1002.7
20260506091440 8 143 0.0 0.0 0.00 0.00 1.98 99 1002.7
20260506090144 8 132 0.0 0.0 0.00 0.00 1.96 99 1002.5
20260506084930 8 93 0.0 0.0 0.00 0.00 1.93 99 1002.5
20260506083635 8 145 0.0 0.0 0.00 0.00 1.85 99 1002.5
20260506082330 7 117 0.0 0.0 0.00 0.00 1.83 99 1002.3
20260506081015 7 182 0.0 1.6 0.00 0.00 1.78 99 1002.4
20260506072710 7 137 0.0 0.0 0.00 0.00 1.60 99 1002.3
20260506071315 7 132 0.0 0.0 0.00 0.00 1.57 99 1002.1
20260506061755 8 151 0.0 0.0 0.00 0.00 1.40 99 1001.9
20260506060405 8 145 0.0 0.0 0.00 0.00 1.37 99 1001.9
20260506050758 8 152 0.0 0.0 0.00 0.00 1.22 99 1001.9
20260506044100 8 152 0.0 0.0 0.00 0.00 1.12 99 1001.9
20260506042635 8 146 0.0 0.0 0.00 0.00 1.04 99 1001.8
20260506041155 8 153 0.0 0.0 0.00 0.00 0.91 99 1002.0
20260506035840 8 153 0.0 0.0 0.00 0.00 0.81 99 1002.1
20260506034635 8 139 0.0 0.0 0.00 0.00 0.71 99 1001.9
20260506033215 8 119 0.0 0.0 0.00 0.00 0.64 99 1002.0
20260506031850 8 132 0.0 0.0 0.00 0.00 0.56 99 1002.5
20260506030530 8 139 0.0 0.0 0.00 0.00 0.51 99 1002.3
20260506025200 8 153 0.0 0.0 0.00 0.00 0.41 99 1002.4
20260506023730 9 123 1.6 1.6 0.00 0.00 0.36 99 1002.5
20260506022520 9 133 0.0 0.0 0.00 0.00 0.28 99 1002.6
20260506021204 9 170 0.0 1.6 0.00 0.00 0.23 99 1002.6
20260506015714 9 138 0.0 0.0 0.00 0.00 0.15 99 1002.5
20260506014435 10 139 0.0 0.0 0.00 0.00 0.13 99 1002.8
20260506013220 10 152 0.0 0.0 0.00 0.00 0.08 99 1002.8
20260506011854 10 146 0.0 0.0 0.00 0.00 0.05 99 1002.6
20260506010555 10 130 0.0 0.0 0.00 0.00 0.05 99 1002.9
20260506005306 10 136 0.0 0.0 0.00 0.00 0.03 99 1002.8
20260506003855 10 125 0.0 0.0 0.00 0.00 0.00 99 1003.1
20260506002440 10 146 0.0 1.6 0.00 0.00 0.00 99 1003.1
20260506001100 10 152 0.0 0.0 0.00 0.00 0.00 99 1003.2
20260505235717 10 152 0.0 0.0 0.00 0.00 0.00 99 1003.6
20260505234510 10 145 0.0 0.0 0.00 0.00 0.00 99 1003.6
20260505233230 10 136 0.0 0.0 0.00 0.00 0.00 99 1003.7
20260505231735 10 153 0.0 0.0 0.00 0.00 0.00 99 1003.8
20260505230500 10 132 0.0 0.0 0.00 0.00 0.00 99 1003.6
20260505225105 10 151 0.0 0.0 0.00 0.00 0.00 99 1003.9
20260505223815 10 151 0.0 0.0 0.00 0.00 0.00 99 1003.8
20260505222610 10 49 1.6 3.2 0.00 0.00 0.00 99 1003.9
20260505221315 10 133 0.0 0.0 0.00 0.00 0.00 99 1004.0
20260505215950 10 177 1.6 3.2 0.00 0.00 0.38 99 1004.3
20260505214659 10 151 0.0 0.0 0.00 0.00 0.38 99 1004.2
20260505213445 10 106 0.0 1.6 0.00 0.00 0.38 99 1004.1
20260505212144 10 76 1.6 3.2 0.00 0.00 0.38 99 1004.1
20260505210845 10 123 0.0 0.0 0.00 0.00 0.38 99 1004.4
20260505205614 11 139 0.0 0.0 0.00 0.00 0.38 98 1004.4
20260505204324 11 139 0.0 0.0 0.00 0.00 0.38 98 1004.7
20260505202915 11 131 3.2 4.8 0.00 0.00 0.38 98 1004.5
20260505201659 11 139 0.0 0.0 0.00 0.00 0.38 97 1004.4
20260505200450 11 155 0.0 0.0 0.00 0.00 0.38 97 1004.6
20260505195110 11 139 0.0 0.0 0.00 0.00 0.38 96 1004.4
20260505193800 11 159 0.0 1.6 0.00 0.00 0.38 96 1004.6
20260505192600 11 138 0.0 0.0 0.00 0.00 0.38 96 1004.5
20260505191144 11 149 0.0 0.0 0.00 0.00 0.38 96 1004.6
20260505185939 11 163 0.0 0.0 0.00 0.00 0.38 96 1004.3
20260505184610 11 152 0.0 0.0 0.00 0.00 0.38 96 1004.5
20260505183240 11 156 0.0 0.0 0.00 0.00 0.38 96 1004.3
20260505181840 11 214 0.0 0.0 0.00 0.00 0.38 95 1004.6
20260505180510 11 146 0.0 0.0 0.00 0.00 0.38 95 1004.5
20260505175140 12 145 0.0 0.0 0.00 0.00 0.38 95 1004.5
20260505173930 12 121 0.0 0.0 0.00 0.00 0.38 95 1004.5
20260505172619 12 165 0.0 0.0 0.00 0.00 0.38 94 1004.5
20260505171355 12 101 0.0 1.6 0.00 0.00 0.38 94 1004.6
20260505170055 12 148 0.0 0.0 0.00 0.00 0.38 94 1004.8
20260505164615 12 134 0.0 0.0 0.00 0.00 0.38 94 1004.6
20260505163230 12 124 0.0 0.0 0.00 0.00 0.38 94 1004.7
20260505161755 12 154 0.0 0.0 0.00 0.00 0.38 94 1004.9
20260505160454 12 157 0.0 0.0 0.00 0.00 0.38 95 1004.7
20260505152225 13 131 0.0 0.0 0.00 0.00 0.38 94 1005.3
20260505150835 13 128 0.0 0.0 0.00 0.00 0.38 94 1005.0
20260505140124 13 156 0.0 0.0 0.00 0.00 0.38 96 1005.4